Wainwright, AK

3:42 AM AKDT on April 29, 2017 (GMT -0800)
Wainwright

Weather History for PAWI - August, 2013

Change the Weather History Date:

Saturday, August 17, 2013

  Actual Average (PABR) Record (PABR)
Temperature  
Mean Temperature 41 °F -  
Max Temperature 43 °F 43 °F 73 °F (1923)
Min Temperature 39 °F 33 °F 24 °F (1980)
Degree Days  
Heating Degree Days 24    
Moisture  
Dew Point 38 °F    
Average Humidity 89    
Maximum Humidity 93    
Minimum Humidity 79    
Precipitation  
Precipitation 0.00 in - - ()
Sea Level Pressure  
Sea Level Pressure 29.80 in    
Wind  
Wind Speed 8 mph (North)    
Max Wind Speed 9 mph    
Max Gust Speed -    
Visibility 6 miles    
Events Rain    
Averages and records for this station are not official NWS values.
T = Trace of Precipitation, MM = Missing Value Source: NWS Daily Summary

Daily Weather History Graph

Daily Weather History Graph

Search for Another Location

Airport or City:

Trip Planner

Search our weather history database for the weather conditions in past years. The results will help you decide how hot, cold, wet, or windy it might be!

Date:

Astronomy

Aug. 17, 2013 Rise Set
Actual Time 5:41 AM AKDT 11:42 PM AKDT
Civil Twilight 3:06 AM AKDT 1:56 AM AKDT
Nautical Twilight Sun does not set Sun does not set
Astronomical Twilight Sun does not set Sun does not set
Moon 10:33 PM AKDT (8/17) No Moon Set
Length of Visible Light 22h 50m
Length of Day
18h 00m
Waxing Gibbous, 85% of the Moon is Illuminated
Aug 17
Waxing Gibbous
Aug 20
Full
Aug 28
Last Quarter
Sep 5
New
Sep 12
First Quarter

Hourly Weather History & Observations

Time (AKDT) Temp. Windchill Dew Point Humidity Pressure Visibility Wind Dir Wind Speed Gust Speed Precip Events Conditions
12:22 AM 42.8 °F 37.5 °F 41.0 °F 93% 29.82 in 2.5 mi NNE 9.2 mph - N/A   Overcast
12:29 AM 42.8 °F 38.6 °F 41.0 °F 93% 29.82 in 7.0 mi NNE 6.9 mph - N/A   Overcast
12:47 AM 42.8 °F 37.5 °F 39.2 °F 87% 29.82 in 1.8 mi North 9.2 mph - N/A   Overcast
12:53 AM 42.1 °F 36.6 °F 39.9 °F 92% 29.82 in 1.2 mi North 9.2 mph - N/A   Overcast
1:09 AM 42.8 °F 37.5 °F 39.2 °F 87% 29.82 in 3.0 mi North 9.2 mph - N/A   Overcast
1:53 AM 42.1 °F 37.1 °F 39.9 °F 92% 29.82 in 10.0 mi North 8.1 mph - N/A   Overcast
2:53 AM 42.1 °F 37.1 °F 39.9 °F 92% 29.82 in 2.5 mi NNE 8.1 mph - N/A   Overcast
3:01 AM 42.8 °F 38.0 °F 39.2 °F 87% 29.81 in 5.0 mi NNE 8.1 mph - N/A   Overcast
3:36 AM 42.8 °F 38.6 °F 39.2 °F 87% 29.81 in 1.5 mi North 6.9 mph - N/A   Overcast
3:53 AM 42.1 °F 37.7 °F 39.9 °F 92% 29.82 in 3.0 mi North 6.9 mph - N/A   Overcast
4:27 AM 41.0 °F 36.4 °F 39.2 °F 93% 29.81 in 1.8 mi North 6.9 mph - N/A   Overcast
4:53 AM 41.0 °F 36.4 °F 39.0 °F 93% 29.81 in 2.5 mi North 6.9 mph - N/A   Overcast
5:00 AM 41.0 °F 35.8 °F 39.2 °F 93% 29.81 in 4.0 mi North 8.1 mph - N/A   Overcast
5:53 AM 41.0 °F 37.1 °F 39.0 °F 93% 29.81 in 7.0 mi North 5.8 mph - N/A   Overcast
6:34 AM 41.0 °F 37.1 °F 39.2 °F 93% 29.81 in 1.8 mi North 5.8 mph - N/A   Overcast
6:42 AM 41.0 °F 36.4 °F 39.2 °F 93% 29.81 in 1.2 mi North 6.9 mph - 0.00 in Rain Light Rain
6:53 AM 41.0 °F 37.1 °F 39.0 °F 93% 29.81 in 2.5 mi North 5.8 mph - 0.00 in Rain Light Rain
7:00 AM 41.0 °F 36.4 °F 39.2 °F 93% 29.81 in 10.0 mi North 6.9 mph - N/A   Overcast
7:53 AM 41.0 °F 36.4 °F 39.0 °F 93% 29.81 in 8.0 mi North 6.9 mph - N/A   Overcast
8:33 AM 41.0 °F 36.4 °F 39.2 °F 93% 29.81 in 2.0 mi North 6.9 mph - N/A   Overcast
8:43 AM 41.0 °F 35.8 °F 39.2 °F 93% 29.81 in 1.5 mi North 8.1 mph - N/A   Overcast
8:53 AM 41.0 °F 36.4 °F 39.0 °F 93% 29.81 in 1.5 mi North 6.9 mph - N/A   Overcast
9:08 AM 41.0 °F 35.8 °F 37.4 °F 87% 29.81 in 2.5 mi North 8.1 mph - N/A   Overcast
9:18 AM 39.2 °F 33.6 °F 37.4 °F 93% 29.81 in 3.0 mi North 8.1 mph - N/A   Overcast
9:53 AM 41.0 °F 35.8 °F 37.9 °F 89% 29.81 in 7.0 mi North 8.1 mph - N/A   Overcast
10:53 AM 41.0 °F 35.8 °F 37.9 °F 89% 29.81 in 3.0 mi North 8.1 mph - N/A   Overcast
10:58 AM 41.0 °F 35.2 °F 37.4 °F 87% 29.80 in 1.8 mi North 9.2 mph - N/A   Overcast
11:40 AM 39.2 °F 33.6 °F 37.4 °F 93% 29.80 in 3.0 mi North 8.1 mph - N/A   Overcast
11:53 AM 41.0 °F 35.8 °F 39.0 °F 93% 29.81 in 9.0 mi North 8.1 mph - N/A   Overcast
12:13 PM 42.8 °F 37.5 °F 39.2 °F 87% 29.80 in 3.0 mi North 9.2 mph - N/A   Overcast
12:53 PM 42.1 °F 36.6 °F 39.0 °F 89% 29.80 in 9.0 mi North 9.2 mph - N/A   Overcast
1:53 PM 42.1 °F 36.6 °F 39.0 °F 89% 29.80 in 10.0 mi North 9.2 mph - N/A   Overcast
2:53 PM 42.1 °F 37.1 °F 37.9 °F 85% 29.80 in 10.0 mi NNW 8.1 mph - N/A   Overcast
3:53 PM 42.1 °F 37.1 °F 37.9 °F 85% 29.79 in 10.0 mi North 8.1 mph - N/A   Overcast
4:53 PM 43.0 °F 38.2 °F 37.9 °F 82% 29.79 in 10.0 mi North 8.1 mph - N/A   Overcast
5:53 PM 42.1 °F 37.7 °F 37.9 °F 85% 29.79 in 10.0 mi NNW 6.9 mph - N/A   Overcast
6:30 PM 42.8 °F 38.0 °F 37.4 °F 81% 29.78 in 10.0 mi North 8.1 mph - N/A   Overcast
6:53 PM 42.1 °F 36.6 °F 37.9 °F 85% 29.78 in 10.0 mi NNW 9.2 mph - N/A   Overcast
7:09 PM 42.8 °F 38.6 °F 37.4 °F 81% 29.78 in 10.0 mi NNW 6.9 mph - N/A   Overcast
7:53 PM 42.1 °F 40.2 °F 36.0 °F 79% 29.78 in 10.0 mi North 3.5 mph - N/A   Overcast
8:53 PM 41.0 °F 39.0 °F 35.1 °F 79% 29.78 in 10.0 mi NW 3.5 mph - N/A   Overcast
9:53 PM 41.0 °F 39.0 °F 35.1 °F 79% 29.78 in 10.0 mi NNW 3.5 mph - N/A   Overcast
10:53 PM 39.9 °F 36.7 °F 36.0 °F 86% 29.78 in 7.0 mi NNE 4.6 mph - N/A   Overcast
11:03 PM 39.2 °F 37.0 °F 35.6 °F 87% 29.78 in 6.0 mi NNE 3.5 mph - N/A   Overcast
11:29 PM 39.2 °F - 35.6 °F 87% 29.77 in 7.0 mi Calm Calm - N/A   Overcast
11:53 PM 39.9 °F 37.8 °F 36.0 °F 86% 29.78 in 10.0 mi North 3.5 mph - N/A   Overcast